Weather History for Lumberton, NC

Change the Weather History Date:

Thursday, February 6, 2014

  Actual Average Record
Temperature  
Mean Temperature 43 °F 45 °F  
Max Temperature 50 °F 56 °F 80 °F (2008)
Min Temperature 36 °F 34 °F 18 °F (2009)
Degree Days  
Heating Degree Days 22 20  
Month to date heating degree days 105 122  
Since 1 July heating degree days 1874 1841  
Cooling Degree Days 0 0  
Month to date cooling degree days 0 0  
Year to date cooling degree days 0 1  
Moisture  
Dew Point 28 °F    
Average Humidity 66    
Maximum Humidity 82    
Minimum Humidity 49    
Precipitation  
Precipitation T in 0.09 in 0.51 in (2003)
Month to date precipitation 0.60 0.51  
Year to date precipitation 3.67 3.48  
Sea Level Pressure  
Sea Level Pressure 30.25 in    
Wind  
Wind Speed 8 mph (NNE)    
Max Wind Speed 18 mph    
Max Gust Speed 22 mph    
Visibility 10 miles    
Events      
T = Trace of Precipitation, MM = Missing Value Source: NWS Daily Summary

Daily Weather History Graph

Daily Weather History Graph

Search for Another Location

Airport:

Trip Planner

Search our weather history database for the weather conditions in past years. The results will help you decide how hot, cold, wet, or windy it might be!

Date:

Astronomy

Feb. 06, 2014 Rise Set
Actual Time 7:10 AM EST 5:50 PM EST
Civil Twilight 6:44 AM EST 6:16 PM EST
Nautical Twilight 6:14 AM EST 6:46 PM EST
Astronomical Twilight 5:44 AM EST 7:16 PM EST
Moon 11:22 AM EST (2/6) 12:24 AM EST (2/6)
Length of Visible Light 11h 32m
Length of Day
10h 40m
Waxing Crescent, 49% of the Moon is Illuminated
Feb 6
Waxing Crescent
Feb 6
First Quarter
Feb 14
Full
Feb 22
Last Quarter
Mar 1
New

Hourly Weather History & Observations

Time (EST) Temp. Windchill Dew Point Humidity Pressure Visibility Wind Dir Wind Speed Gust Speed Precip Events Conditions
1:54 AM 44.1 °F 38.6 °F 30.0 °F 58% 30.11 in 10.0 mi North 10.4 mph - N/A   Clear
2:54 AM 42.1 °F 36.6 °F 28.9 °F 60% 30.12 in 10.0 mi North 9.2 mph - N/A   Clear
3:54 AM 41.0 °F 35.2 °F 30.0 °F 65% 30.14 in 10.0 mi North 9.2 mph - N/A   Clear
4:54 AM 39.0 °F 32.8 °F 28.0 °F 65% 30.17 in 10.0 mi North 9.2 mph - N/A   Clear
5:54 AM 37.9 °F 33.5 °F 27.0 °F 65% 30.20 in 10.0 mi North 5.8 mph - N/A   Clear
6:54 AM 36.0 °F 30.3 °F 26.1 °F 67% 30.22 in 10.0 mi North 6.9 mph - N/A   Clear
7:54 AM 37.0 °F 31.6 °F 26.1 °F 65% 30.26 in 10.0 mi North 6.9 mph - N/A   Clear
8:54 AM 37.9 °F 30.5 °F 25.0 °F 60% 30.29 in 10.0 mi NNE 11.5 mph - N/A   Clear
9:54 AM 39.9 °F 33.4 °F 25.0 °F 55% 30.29 in 10.0 mi NNE 10.4 mph - N/A   Clear
10:54 AM 42.1 °F 34.9 °F 26.1 °F 53% 30.30 in 10.0 mi NNE 13.8 mph - N/A   Clear
11:54 AM 44.1 °F 37.4 °F 28.0 °F 53% 30.28 in 10.0 mi NNE 13.8 mph - N/A   Clear
12:54 PM 45.0 °F 41.2 °F 28.9 °F 53% 30.27 in 10.0 mi Variable 6.9 mph - N/A   Clear
1:54 PM 46.0 °F 44.8 °F 28.0 °F 50% 30.24 in 10.0 mi Variable 3.5 mph - N/A   Clear
2:54 PM 46.0 °F 42.5 °F 28.0 °F 50% 30.23 in 10.0 mi North 6.9 mph - N/A   Clear
3:54 PM 46.0 °F 43.9 °F 28.0 °F 50% 30.25 in 10.0 mi NNW 4.6 mph - N/A   Clear
4:54 PM 44.1 °F 40.8 °F 27.0 °F 51% 30.24 in 10.0 mi NE 5.8 mph - N/A   Clear
5:54 PM 44.1 °F 42.5 °F 28.0 °F 53% 30.25 in 10.0 mi NE 3.5 mph - N/A   Clear
6:54 PM 43.0 °F 38.8 °F 28.0 °F 56% 30.25 in 10.0 mi East 6.9 mph - N/A   Partly Cloudy
7:54 PM 42.1 °F 37.1 °F 26.1 °F 53% 30.29 in 10.0 mi NNE 8.1 mph - N/A   Overcast
8:54 PM 42.1 °F 39.2 °F 27.0 °F 55% 30.34 in 10.0 mi North 4.6 mph - N/A   Overcast
9:54 PM 39.9 °F 34.5 °F 28.9 °F 65% 30.32 in 10.0 mi NNE 8.1 mph - N/A   Overcast
10:54 PM 37.0 °F 32.4 °F 32.0 °F 82% 30.32 in 10.0 mi ESE 5.8 mph - 0.00 in   Overcast
11:54 PM 36.0 °F 31.1 °F 33.1 °F 89% 30.31 in 6.0 mi SE 5.8 mph - 0.00 in   Overcast